sat.trackr.live / text

‹ back to catalog

STARLINK-31332

NORAD 59566 · 2024-076C

PAYLOAD ACTIVE UNKNOWN

§ Identity

Operator
Country
US
Launch date
2024-04-23
Launch site
AFETR
Launch vehicle
Mass (kg)
RCS (m²)

Purposes: comms

External: N2YO · Heavens-Above · Gunter

§ Orbital elements

Epoch: 2026-09-21T12:16:23.586240Z

Period
94.27 min
Inclination
43.0023°
Eccentricity
0.0002358
Mean motion
15.27570814 rev/d
Perigee alt
481.5 km
Apogee alt
484.7 km
Semi-major
6,861.2 km
B*
8.7623e-6
RAAN
342.8808°
Arg perigee
285.0745°
Mean anomaly
74.9846°
Rev number
13,645

§ Raw data

STARLINK-313321 59566U 24076C   26264.51138410 -.00000021  00000+0  87623-5 0  99972 59566  43.0023 342.8808 0002358 285.0745  74.9846 15.27570814136454

JSON: /api/v1/satellites/59566 · /tle

For live sub-satellite position, see the globe view (requires WebGL).

§ Visibility from observer

Set your observer location to see the next 7 days of passes ≥ 10°. The values pass through the URL so the page stays shareable.

No JS? Fill the form by hand. The geolocation button needs JavaScript.